www.pogodaiklimat.ru

Погода и климат >> Архив погоды >> Пакистан >> Multan


ПОГОДА в Multan

  • Прогноз погоды в Multan
  • Монитор погоды в Multan
  • Климат города

АРХИВ ПОГОДЫ в Multan

Время (UTC), дата Ветер
(напр.,м/с)
 
Видим.   Явления Облачность Т
(С)
Тd
(С)
f
(%)
Тe
(С)
Тes
(С)
Комфортность P
(гПа)
Po
(гПа)
Тmin
(С)
Tmax
(С)
R
(мм)
R24
(мм)
S
(см)
18 11.12 СВ 1 4000 м дым 4/0
[Ac As]
+14.0 +10.2 78 +14 +14 1018.0 1003.6
21 11.12 штиль 0 4000 м дым ясно +11.0 +9.0 87 +10 +10 1017.1 1000.0
00 12.12 штиль 0 4000 м дым ясно +10.5 +8.5 87 +10 +10 1016.7 1002.3
03 12.12 штиль 0 2000 м дымка ясно +12.5 +7.4 71 +12 +12 1018.6 1004.4 +9.1
06 12.12 С 2 4000 м дым ясно +16.0 +10.4 69 +16 +24 1019.9 1005.5
09 12.12 С 2 10 км ясно +20.0 +8.6 48 +22 +28 комфорт 1017.9 1000.0
12 12.12 штиль 0 4000 м мгла ясно +19.5 +7.9 47 +20 +20 1017.6 1003.2 +20.5
15 12.12 штиль 0 4000 м дым ясно +15.0 +9.2 68 +15 +15 1019.3 1000.0
18 12.12 штиль 0 4000 м дым ясно +12.5 +8.5 77 +12 +12 1019.8 1005.4
21 12.12 штиль 0 4000 м дым ясно +11.0 +7.9 81 +10 +10 1019.8 1000.0
00 13.12 штиль 0 4000 м дым ясно +9.0 +6.9 87 +8 +8 1020.8 1006.4
03 13.12 штиль 0 1000 м дымка ясно +8.0 +5.8 86 +7 +8 1022.2 1007.8 +7.3
06 13.12 штиль 0 500 м туман ясно +11.5 +10.5 94 +11 +20 1024.0 1009.5
09 13.12 штиль 0 2000 м дым {туман} ясно +17.5 +13.1 75 +18 +25 1021.7 1000.0
12 13.12 штиль 0 2000 м дым ясно +18.5 +10.1 58 +19 +19 1021.1 1006.7 +19.1
15 13.12 штиль 0 2000 м дым ясно +15.0 +11.3 79 +15 +15 1021.9 1000.0
18 13.12 штиль 0 2000 м дымка ясно +12.0 +10.1 88 +11 +11 1022.9 997.5
21 13.12 штиль 0 1000 м дымка ясно +10.5 +8.5 87 +10 +10 1022.4 1000.0
00 14.12 штиль 0 <100 м туман н/о +8.0 +6.9 93 +7 +7 1022.8 1008.4
03 14.12 штиль 0 500 м туман ясно +6.5 +5.4 93 +5 +6 1024.4 1009.9 +5.7
06 14.12 штиль 0 2000 м дым {туман} ясно +15.0 +10.3 73 +15 +24 1026.2 1011.6
09 14.12 С 1 4000 м дым ясно +19.0 +9.6 54 +21 +28 комфорт 1024.2 1000.0
12 14.12 штиль 0 4000 м мгла ясно +19.5 +7.9 47 +20 +20 1023.4 1008.9 +20.7
15 14.12 штиль 0 4000 м дым ясно +14.5 +9.7 73 +14 +14 1024.5 1000.0
18 14.12 штиль 0 4000 м дым ясно +12.0 +9.0 82 +11 +11 1024.8 997.1
21 14.12 штиль 0 4000 м дым ясно +10.5 +8.5 87 +10 +10 1023.8 1000.0
00 15.12 0 туман н/о +6.9 1023.2 1008.7
03 15.12 штиль 0 <100 м туман ясно +6.0 +6.0 100 +5 +6 1024.1 1009.6 +5.7
06 15.12 штиль 0 2000 м дымка {туман} ясно +13.5 +10.6 83 +13 +22 1025.3 1010.8
09 15.12 штиль 0 4000 м дым ясно +20.0 +10.4 54 +21 +29 комфорт 1023.1 1000.0
12 15.12 штиль 0 4000 м дым ясно +20.0 +9.8 52 +21 +21 комфорт 1022.1 1007.7 +21.5
15 15.12 штиль 0 4000 м дым ясно +14.0 +10.2 78 +14 +14 1023.8 1000.0
18 15.12 штиль 0 4000 м дым ясно +12.0 +7.9 76 +12 +12 1025.1 997.2
21 15.12 штиль 0 4000 м дым ясно +9.5 +7.4 87 +9 +9 1023.6 1000.0
00 16.12 штиль 0 2000 м дым ясно +8.0 +5.8 86 +7 +7 1023.3 1008.8
03 16.12 штиль 0 1000 м дымка ясно +6.0 +4.8 92 +5 +6 1024.6 1010.2 +5.7
06 16.12 штиль 0 4000 м дым ясно +17.0 +7.0 52 +17 +26 1026.3 1011.7
09 16.12 СЗ 1 4000 м мгла ясно +21.0 +4.8 35 +23 +30 комфорт 1022.8 1010.6
12 16.12 штиль 0 4000 м мгла ясно +21.0 +4.8 35 +21 +22 комфорт 1021.1 1006.7 +22.1
15 16.12 штиль 0 4000 м дым ясно +14.0 +8.0 67 +14 +14 1022.0 1000.0
18 16.12 штиль 0 4000 м дым ясно +11.0 +6.8 75 +10 +10 1022.6 997.7
21 16.12 штиль 0 4000 м дым ясно +8.5 +6.3 86 +8 +8 1022.0 1000.0
00 17.12 штиль 0 2000 м дымка ясно +7.0 +4.7 85 +6 +6 1021.7 1007.3
03 17.12 штиль 0 1000 м дымка ясно +6.0 +3.6 85 +5 +6 1022.6 1008.2 +5.5
06 17.12 СЗ 2 2000 м мгла ясно +17.0 +5.7 47 +17 +24 1023.9 1009.4
09 17.12 СЗ 2 4000 м мгла ясно +22.5 +5.8 34 +23 +29 комфорт 1020.8 1000.0
12 17.12 штиль 0 4000 м мгла ясно +21.5 +7.0 39 +22 +22 комфорт 1019.8 1005.4 +23.1
15 17.12 штиль 0 4000 м дым ясно +15.0 +9.2 68 +15 +15 1020.4 1000.0
18 17.12 штиль 0 4000 м дым ясно +11.0 +6.8 75 +10 +10 1021.2 1006.8
21 17.12 штиль 0 4000 м дым ясно +9.0 +5.7 80 +8 +8 1020.3 1000.0
00 18.12 штиль 0 4000 м дым ясно +7.0 +4.7 85 +6 +6 1019.6 1005.2
03 18.12 штиль 0 500 м дымка {туман} ясно +6.5 +4.2 85 +6 +6 1020.4 1006.1 +5.7
06 18.12 Ю 1 2000 м мгла {туман} ясно +18.0 +5.8 45 +19 +27 1021.4 1007.0
09 18.12 ЮЗ 2 4000 м мгла ясно +22.0 +3.4 29 +22 +28 комфорт 1018.9 1000.0
12 18.12 Ю 1 4000 м мгла ясно +20.5 +3.9 33 +22 +22 комфорт 1017.3 1002.9 +22.3

 

Местоположение метеостанции Multan (Пакистан): широта 30.20 долгота 71.43 высота над уровнем моря 123 м.

В архиве по умолчанию представлена погода в Multan за последнюю неделю. Архивные данные за месяц целиком и за предыдущие месяцы, начиная с января 2011 года, Вы можете получить, выбрав интересующий диапазон дат из раскрывающегося списка и нажав кнопку "Ввод!".


*Определитесь, кто Вы:
робот инопланетянин человек

Внимание! Время в таблицах - всемирное. Для получения местного времени необходимо прибавить поправку, которая в Multan равна 5 ч.

Смотрите также архив погоды в соседних городах и на ближайших метеорологических станциях:

Погода в Bahawalpur (Пакистан) (95 км)
Погода в Raifiqui Airbase (Пакистан) (98 км)
Погода в Barkhan (Пакистан) (168 км)
Погода в Bahawalnagar (Пакистан) (177 км)
Погода в Dera Ismail Khan (Пакистан) (187 км)
Погода в Khanpur (Пакистан) (187 км)
Погода в Faisal Abad (Пакистан) (210 км)
Погода в Zhob (Пакистан) (227 км)
Погода в Sargodha (Пакистан) (237 км)
Погода в Sri Ganganagar (Rajasthan, Индия) (239 км)

Пояснения к столбцам:

Ветер - указаны скорость ветра в м/с - средняя за 10 мин, порывы в срок и между сроками (в фигурных скобках) и направление, откуда дует ветер: С - северный, СВ - северо-восточный, В - восточный, ЮВ - юго-восточный, Ю - южный, ЮЗ - юго-западный, З - западный, СЗ - северо-западный.
Видимость - горизонтальная дальность видимости в метрах или километрах. При видимости от 1 до 10 км при отсутствии осадков обычно наблюдается дымка, при ухудшении видимости до 1 км и менее - туман. В сухую погоду видимость может ухудшаться дымом, пылью или мглою.
Явления - указаны атмосферные явления, наблюдавшиеся в срок или в последний час перед сроком; фигурными скобками обозначены явления, наблюдавшиеся между сроками (за 1-3 часа до срока); квадратными скобками обозначены град или гололедные отложения с указанием их диаметра в мм.
Облачность - указаны через наклонную черту общая и нижняя облачность в баллах и высота нижней границы облаков в метрах; квадратными скобками обозначены формы облаков: Ci - перистые, Cs - перисто-слоистые, Cc - перисто-кучевые, Ac - высококучевые, As - высокослоистые, Sc - слоисто-кучевые, Ns - слоисто-дождевые, Cu - кучевые, Cb - кучево-дождевые. Подробнее классификацию облаков см. в Атласе облаков (PDF).
T - Температура воздуха - температура, измеренная на высоте 2 м над землей.
Td - Температура точки росы - температура, при понижении до которой содержащийся в воздухе водяной пар достигнет насыщения.
f - Относительная влажность воздуха - влажноcть воздуха, измеренная на высоте 2 м над землей.
Te - Эффективная температура - температура, которую ощущает одетый по сезону человек в тени. Характеристика душности погоды. При расчете учитывается влияние влажности воздуха и скорости ветра на теплоощущения человека.
Tes - Эффективная температура на солнце - температура, которую ощущает человек, с поправкой на солнечный нагрев. Характеристика знойности погоды. Зависит от высоты солнца над горизонтом, облачности и скорости ветра. Ночью, в пасмурную погоду, а также при ветре 12 м/с и более поправка равна нулю.
P - Атмосферное давление - приведенное к уровню моря атмосферное давление.
Po - Атмосферное давление - измеренное на уровне метеостанции атмосферное давление.
Tmin - Минимальная температура - минимум температуры воздуха на высоте 2 м над землей.
Tmax - Максимальная температура - максимум температуры воздуха на высоте 2 м над землей.
R - Количество осадков - Количество выпавших осадков за период времени, мм. При наведении курсора мыши на число - период времени, за который выпало указанное количество осадков.
R24 - Количество осадков - Количество выпавших осадков за 24 часа, мм.
S - Снежный покров - Высота снежного покрова, см. При наведении курсора мыши на число - состояние снежного покрова и степень покрытия местности в баллах.